| time (UTC) | temp F | wind direction | speed knots | gust knots | rain 1hr in | rain 24hr in | rain mn in | humidity % | barometer mb |
| 20260504044526 | 49 | 360 | 5.2 | 9.6 | 0.00 | 0.00 | 0.00 | 48 | 1012.6 |
| 20260504043030 | 50 | 24 | 5.2 | 9.6 | 0.00 | 0.00 | 0.00 | 47 | 1012.4 |
| 20260504041533 | 50 | 16 | 4.3 | 11.3 | 0.00 | 0.00 | 0.00 | 47 | 1012.4 |
| 20260504040030 | 50 | 28 | 3.5 | 8.7 | 0.00 | 0.00 | 0.00 | 48 | 1012.4 |
| 20260504034529 | 49 | 5 | 4.3 | 7.8 | 0.00 | 0.00 | 0.00 | 48 | 1012.4 |
| 20260504033027 | 50 | 32 | 3.5 | 9.6 | 0.00 | 0.00 | 0.00 | 47 | 1012.3 |
| 20260504031526 | 50 | 18 | 3.5 | 9.6 | 0.00 | 0.00 | 0.00 | 47 | 1012.3 |
| 20260504030028 | 50 | 47 | 4.3 | 7.8 | 0.00 | 0.00 | 0.00 | 47 | 1012.3 |
| 20260504024530 | 50 | 5 | 3.5 | 7.8 | 0.00 | 0.00 | 0.00 | 46 | 1012.4 |
| 20260504023028 | 50 | 19 | 3.5 | 7.0 | 0.00 | 0.00 | 0.00 | 46 | 1012.4 |
| 20260504021527 | 51 | 17 | 2.6 | 7.0 | 0.00 | 0.00 | 0.00 | 46 | 1012.4 |
| 20260504020028 | 50 | 35 | 5.2 | 11.3 | 0.00 | 0.00 | 0.00 | 46 | 1012.3 |
| 20260504014528 | 50 | 17 | 1.7 | 5.2 | 0.00 | 0.00 | 0.00 | 47 | 1012.3 |
| 20260504013026 | 50 | 59 | 0.9 | 2.6 | 0.00 | 0.00 | 0.00 | 47 | 1012.2 |
| 20260504011526 | 50 | 38 | 1.7 | 4.3 | 0.00 | 0.00 | 0.00 | 48 | 1012.2 |
| 20260504010027 | 50 | 31 | 0.9 | 7.0 | 0.00 | 0.00 | 0.00 | 46 | 1012.1 |
| 20260504004530 | 51 | 0 | 0.9 | 3.5 | 0.00 | 0.00 | 0.00 | 46 | 1012.0 |
| 20260504003032 | 52 | 31 | 0.9 | 4.3 | 0.00 | 0.00 | 0.00 | 45 | 1011.9 |
| 20260504001531 | 52 | 27 | 2.6 | 7.0 | 0.00 | 0.00 | 0.00 | 44 | 1011.8 |
| 20260504000030 | 53 | 44 | 4.3 | 9.6 | 0.00 | 0.00 | 0.00 | 42 | 1011.8 |
| 20260503234532 | 54 | 44 | 5.2 | 11.3 | 0.00 | 0.00 | 0.00 | 40 | 1011.7 |
| 20260503233037 | 55 | 55 | 6.1 | 11.3 | 0.00 | 0.00 | 0.00 | 39 | 1011.6 |
| 20260503231533 | 55 | 76 | 8.7 | 15.6 | 0.00 | 0.00 | 0.00 | 38 | 1011.6 |
| 20260503230030 | 56 | 58 | 6.1 | 13.9 | 0.00 | 0.00 | 0.00 | 39 | 1011.5 |
| 20260503224528 | 55 | 61 | 5.2 | 13.0 | 0.00 | 0.00 | 0.00 | 40 | 1011.7 |
| 20260503223028 | 55 | 65 | 8.7 | 15.6 | 0.00 | 0.00 | 0.00 | 39 | 1011.6 |
| 20260503221534 | 55 | 34 | 7.8 | 13.9 | 0.00 | 0.00 | 0.00 | 41 | 1011.7 |
| 20260503220028 | 57 | 49 | 10.4 | 16.5 | 0.00 | 0.00 | 0.00 | 36 | 1011.7 |
| 20260503214526 | 56 | 96 | 10.4 | 18.2 | 0.00 | 0.00 | 0.00 | 38 | 1011.7 |
| 20260503213033 | 55 | 67 | 5.2 | 17.4 | 0.00 | 0.00 | 0.00 | 39 | 1011.6 |
| 20260503211530 | 55 | 92 | 8.7 | 14.8 | 0.00 | 0.00 | 0.00 | 37 | 1011.5 |
| 20260503210027 | 56 | 106 | 9.6 | 19.1 | 0.00 | 0.00 | 0.00 | 37 | 1011.6 |
| 20260503204530 | 55 | 39 | 7.8 | 17.4 | 0.00 | 0.00 | 0.00 | 38 | 1011.6 |
| 20260503203031 | 56 | 46 | 7.8 | 16.5 | 0.00 | 0.00 | 0.00 | 41 | 1011.6 |
| 20260503201527 | 56 | 92 | 9.6 | 20.0 | 0.00 | 0.00 | 0.00 | 38 | 1011.8 |
| 20260503200029 | 56 | 54 | 8.7 | 15.6 | 0.00 | 0.00 | 0.00 | 38 | 1011.9 |
| 20260503194530 | 55 | 65 | 7.8 | 15.6 | 0.00 | 0.00 | 0.00 | 40 | 1012.1 |
| 20260503193030 | 55 | 86 | 10.4 | 17.4 | 0.00 | 0.00 | 0.00 | 39 | 1012.2 |
| 20260503191534 | 54 | 71 | 7.8 | 13.9 | 0.00 | 0.00 | 0.00 | 42 | 1012.4 |
| 20260503190030 | 55 | 11 | 9.6 | 17.4 | 0.00 | 0.00 | 0.00 | 41 | 1012.5 |
| 20260503184528 | 55 | 40 | 10.4 | 16.5 | 0.00 | 0.00 | 0.00 | 41 | 1012.7 |
| 20260503183030 | 54 | 79 | 10.4 | 16.5 | 0.00 | 0.00 | 0.00 | 42 | 1012.8 |
| 20260503181530 | 53 | 52 | 3.5 | 15.6 | 0.00 | 0.00 | 0.00 | 42 | 1012.8 |
| 20260503180028 | 52 | 78 | 8.7 | 16.5 | 0.00 | 0.00 | 0.00 | 42 | 1013.1 |
| 20260503174527 | 53 | 66 | 9.6 | 16.5 | 0.00 | 0.00 | 0.00 | 46 | 1013.1 |
| 20260503173030 | 53 | 51 | 10.4 | 18.2 | 0.00 | 0.00 | 0.00 | 40 | 1013.1 |
| 20260503171526 | 53 | 38 | 8.7 | 19.1 | 0.00 | 0.00 | 0.00 | 44 | 1013.1 |
| 20260503081528 | 37 | 68 | 1.7 | 7.0 | 0.00 | 0.00 | 0.00 | 68 | 1013.1 |
| 20260503071526 | 37 | 130 | 2.6 | 10.4 | 0.00 | 0.00 | 0.00 | 66 | 1012.9 |
| 20260503054534 | 38 | 0 | 0.0 | 2.6 | 0.00 | 0.03 | 0.00 | 65 | 1012.9 |